Flag for Mexico Weather past 2 weeks in Guadalajara, Jalisco, Mexico

Now
72 °F

Scattered clouds.


Feels Like: 75 °F
Forecast: 62 / 81 °F
Wind: 3 mph from Southwest

Location: Don Miguel / Guadalaj

Current Time: Aug 1, 2015 at 11:55:25 AM

Latest Report: Aug 1, 2015 at 10:49 AM


Visibility: 6 mi

Pressure: 30.22 "Hg (25.28 "Hg at 1543m altitude)

Humidity: 65%

Dew point: 59 °F

Location of GuadalajaraLocation

Historic Weather in Guadalajara — Graph

°F

Guadalajara temperature yesterday

Maximum temperature yesterday: 82 °F (at 4:57 PM)
Minimum temperature yesterday: 59 °F (at 2:54 AM)
Average temperature yesterday: 71 °F

Past Weeks' High & Low Weather Summary

 TemperatureHumidityPressure
High84 °F (Jul 25, 5:48 PM)94% (Jul 18, 3:46 AM)30.30 "Hg (Jul 18, 3:46 AM)
Low57 °F (Jul 18, 6:50 AM)31% (Jul 25, 5:48 PM)26.01 "Hg (Jul 27, 6:31 PM)
Average70 °F69%30.08 "Hg
* Reported Jul 17 8:51 AM — Aug 1 8:50 AM, Guadalajara, Weather by CustomWeather, © 2015

Note: Actual official high and low records may vary slightly from our data, if they occured in-between our weather recording intervals... More about our weather records

Advertising

Guadalajara weather history for previous 24 hours

 ConditionsComfort  
Time TempWeatherWind HumidityBarometerVisibility
8:50 AM
Sat, Aug 1
66 °FSunny.No wind78%30.21 "Hg7 mi
7:51 AM61 °FPassing clouds.No wind88%30.20 "Hg8 mi
5:48 AM63 °FPassing clouds.No wind88%30.18 "Hg8 mi
4:45 AM64 °FPassing clouds.7 mph83%30.18 "Hg8 mi
3:53 AM68 °FPassing clouds.5 mph88%29.81 "Hg8 mi
11:45 PM
Fri, Jul 31
68 °FPassing clouds.No wind73%30.18 "Hg10 mi
10:46 PM68 °FPassing clouds.No wind78%30.15 "Hg10 mi
9:50 PM70 °FPassing clouds.No wind64%29.85 "Hg10 mi
8:50 PM73 °FPartly sunny.3 mph61%30.12 "Hg10 mi
7:48 PM79 °FPartly sunny.No wind42%30.11 "Hg10 mi
5:49 PM82 °FPassing clouds.6 mph37%30.12 "Hg8 mi
4:57 PM82 °FScattered clouds.5 mph45%30.14 "Hg8 mi
3:50 PM81 °FScattered clouds.7 mph45%29.85 "Hg8 mi
2:49 PM79 °FScattered clouds.7 mph51%30.20 "Hg7 mi
1:52 PM77 °FScattered clouds.5 mph44%30.22 "Hg8 mi
12:50 PM75 °FScattered clouds.6 mph54%29.91 "Hg8 mi
11:52 AM73 °FBroken clouds.10 mph61%30.27 "Hg8 mi
Weather by CustomWeather, © 2015

See weather overviewHow to use our weather pages